Waarnemingen

Advertentie
Mijn weer
Aboyne, Groot Brittannië (3080): temperatuur & dauwpunt: 30.05.2020 20:00:00 - 05.06.2020 20:00:00 (BST)Aboyne, Groot Brittannië (3080): temperatuur -20cm & temperatuur -100cm: 30.05.2020 20:00:00 - 05.06.2020 20:00:00 (BST)Aboyne, Groot Brittannië (3080): windsnelheid & windstoten: 30.05.2020 20:00:00 - 05.06.2020 20:00:00 (BST)Aboyne, Groot Brittannië (3080): windrichting: 30.05.2020 20:00:00 - 05.06.2020 20:00:00 (BST)Aboyne, Groot Brittannië (3080): luchtdruk: 30.05.2020 20:00:00 - 05.06.2020 20:00:00 (BST)Aboyne, Groot Brittannië (3080): zicht: 30.05.2020 20:00:00 - 05.06.2020 20:00:00 (BST)Aboyne, Groot Brittannië (3080): neerslag: 30.05.2020 20:00:00 - 05.06.2020 20:00:00 (BST)
Datum & Tijd tt [°C] td [°C] tt -20cm [°C] tt -100cm [°C] ff [km/u] ff [kn] fx [km/u] fx [kn] dd ppp [hPa] vv [km] rr [mm]
05.06.2020 20:00:00 - - - - - - - - - - - -
05.06.2020 19:00:00 6,0 3,8 - - 28 15 57 31 W 987,0 19 0,2
05.06.2020 18:00:00 7,2 3,9 - - 29 16 61 33 WNW 987,3 30 0,0
05.06.2020 17:00:00 7,5 4,2 - - 28 15 54 29 W 988,0 22 0,0
05.06.2020 16:00:00 7,9 4,1 - - 29 16 61 33 WNW 988,8 35 0,0
05.06.2020 15:00:00 6,9 4,4 - - 35 19 59 32 WNW 989,8 20 0,4
05.06.2020 14:00:00 8,1 3,6 - - 29 16 67 36 WNW 990,3 6 0,0
05.06.2020 13:00:00 9,5 3,3 - - 29 16 55 30 WNW 990,6 40 0,0
05.06.2020 12:00:00 7,1 4,7 - - 28 15 50 27 NW 991,9 20 0,4
05.06.2020 11:00:00 7,9 3,9 - - 31 17 50 27 NW 992,3 13 0,2
05.06.2020 10:00:00 8,2 4,3 11,7 11,2 26 14 - - WNW 992,7 40 0,0
05.06.2020 09:00:00 7,0 4,2 - - 22 12 - - WNW 993,5 45 0,0
05.06.2020 08:00:00 6,2 3,4 - - 18 10 - - WNW 994,2 17 0,2
05.06.2020 07:00:00 5,7 3,6 - - 15 8 - - NW 994,8 40 0,0
05.06.2020 06:00:00 5,4 3,0 - - 18 10 - - WNW 994,9 14 0,0
05.06.2020 05:00:00 4,8 2,8 - - 13 7 - - WNW 995,5 45 0,0
05.06.2020 04:00:00 4,5 2,5 - - 11 6 - - W 996,2 50 0,0
05.06.2020 03:00:00 4,3 2,3 - - 18 10 - - W 996,6 50 0,0
05.06.2020 02:00:00 4,8 3,6 - - 13 7 - - W 997,6 45 0,2
05.06.2020 01:00:00 5,6 3,5 - - 11 6 - - WNW 998,4 50 0,0
05.06.2020 00:00:00 4,5 3,4 - - 5 3 - - NW 998,8 50 0,0
04.06.2020 23:00:00 6,0 3,8 - - 4 2 - - NW 999,2 50 0,0
04.06.2020 22:00:00 5,8 3,4 - - 2 1 - - NO 999,6 50 0,0
04.06.2020 21:00:00 7,8 3,6 - - 4 2 - - N 999,7 50 0,0
04.06.2020 20:00:00 8,3 3,0 - - 11 6 - - NNW 999,9 50 0,0
04.06.2020 19:00:00 9,8 5,0 - - 9 5 - - N 1000,0 50 0,0
04.06.2020 18:00:00 8,2 5,9 - - 8 4 - - Z 1000,6 45 0,0
04.06.2020 17:00:00 8,2 5,2 - - 2 1 - - ZW 1001,0 45 0,0
04.06.2020 16:00:00 7,3 5,4 - - 8 4 - - NNO 1001,5 45 0,4
04.06.2020 15:00:00 8,2 6,8 - - 8 4 - - ONO 1001,7 9 1,0
04.06.2020 14:00:00 10,5 7,8 - - 5 3 - - NNO 1001,4 40 0,4
04.06.2020 13:00:00 9,7 4,9 - - 5 3 - - N 1001,8 14 0,4
04.06.2020 12:00:00 11,0 5,1 - - 4 2 - - WZW 1002,1 30 0,0
04.06.2020 11:00:00 9,9 4,2 - - 4 2 - - NNW 1002,9 30 0,0
04.06.2020 10:00:00 9,2 4,0 11,9 11,4 2 1 - - ZO 1003,3 35 0,0
04.06.2020 09:00:00 9,1 4,2 - - 4 2 - - ONO 1003,9 50 0,0
04.06.2020 08:00:00 7,4 5,2 - - 2 1 - - O 1004,5 45 0,0
04.06.2020 07:00:00 5,0 4,9 - - 0 0 - - N 1005,5 50 0,0
04.06.2020 06:00:00 3,5 3,3 - - 4 2 - - NW 1006,5 45 0,0
04.06.2020 05:00:00 1,4 0,7 - - 2 1 - - WNW 1007,4 21 0,0
04.06.2020 04:00:00 2,7 2,0 - - 2 1 - - WNW 1008,1 28 0,0
04.06.2020 03:00:00 5,4 4,6 - - 0 0 - - N 1008,9 24 0,2
04.06.2020 02:00:00 5,8 4,8 - - 5 3 - - NW 1009,9 22 0,0
04.06.2020 01:00:00 5,4 4,1 - - 4 2 - - WNW 1010,6 30 0,0
04.06.2020 00:00:00 6,5 4,1 - - 9 5 - - WNW 1011,5 40 0,0
03.06.2020 23:00:00 7,1 4,4 - - 8 4 - - W 1012,4 40 0,0
03.06.2020 22:00:00 7,7 4,2 - - 9 5 - - NW 1013,3 40 0,0
03.06.2020 21:00:00 8,3 4,4 - - 9 5 - - NNW 1013,3 30 0,0
03.06.2020 20:00:00 8,9 5,0 - - 9 5 - - N 1013,7 40 0,0
03.06.2020 19:00:00 9,5 4,6 - - 13 7 - - NNW 1014,3 45 0,0
03.06.2020 18:00:00 9,2 5,6 - - 11 6 - - NNW 1014,9 35 0,0
03.06.2020 17:00:00 9,3 6,5 - - 15 8 - - NNW 1015,4 19 0,2
03.06.2020 16:00:00 9,3 7,2 - - 15 8 - - NNW 1015,9 24 0,0
03.06.2020 15:00:00 9,0 7,0 - - 15 8 - - NW 1016,0 10 0,0
03.06.2020 14:00:00 9,5 7,7 - - 18 10 - - NW 1016,1 28 0,0
03.06.2020 13:00:00 8,9 5,9 - - 21 11 - - NNW 1016,5 35 0,2
03.06.2020 12:00:00 8,5 6,0 - - 16 9 - - NNW 1016,9 9 0,0
03.06.2020 11:00:00 9,9 6,1 - - 24 13 - - NNW 1017,2 50 0,0
03.06.2020 10:00:00 8,5 4,0 12,2 11,4 15 8 - - WNW 1017,4 35 0,0
03.06.2020 09:00:00 8,4 5,5 - - 11 6 - - NNW 1017,6 40 0,0
03.06.2020 08:00:00 7,8 5,1 - - 13 7 - - NW 1017,9 40 0,0
03.06.2020 07:00:00 7,0 5,6 - - 11 6 - - NNW 1018,2 13 0,0
03.06.2020 06:00:00 7,0 5,5 - - 11 6 - - NW 1018,1 8 0,0
03.06.2020 05:00:00 6,9 5,4 - - 11 6 - - NW 1018,2 45 0,0
03.06.2020 04:00:00 7,1 5,6 - - 13 7 - - NW 1018,2 40 0,0
03.06.2020 03:00:00 7,3 6,2 - - 11 6 - - NW 1018,5 40 0,2
03.06.2020 02:00:00 7,6 6,2 - - 8 4 - - NNW 1018,7 29 0,0
03.06.2020 01:00:00 8,0 6,5 - - 8 4 - - NW 1019,0 30 0,0
03.06.2020 00:00:00 8,1 7,2 - - 5 3 - - W 1019,1 20 1,0
02.06.2020 23:00:00 8,2 6,7 - - 4 2 - - NW 1019,2 17 1,0
02.06.2020 22:00:00 9,2 7,8 - - 8 4 - - N 1019,0 12 0,4
02.06.2020 21:00:00 9,7 8,5 - - 4 2 - - N 1018,7 18 1,2
02.06.2020 20:00:00 10,3 9,1 - - 8 4 - - N 1018,4 11 0,8
02.06.2020 19:00:00 11,7 10,3 - - 8 4 - - ONO 1017,9 11 0,6
02.06.2020 18:00:00 12,3 11,0 - - 5 3 - - ONO 1018,1 9 0,8
02.06.2020 17:00:00 13,7 11,5 - - 5 3 - - NO 1018,5 28 0,4
02.06.2020 16:00:00 14,2 11,0 - - 4 2 - - ONO 1019,0 30 0,0
02.06.2020 15:00:00 14,0 10,9 - - 13 7 - - NNO 1019,3 27 0,0
02.06.2020 14:00:00 15,4 10,1 - - 9 5 - - NNO 1019,5 45 0,0
02.06.2020 13:00:00 17,0 11,2 - - 11 6 - - NNO 1019,6 30 0,0
02.06.2020 12:00:00 18,0 10,7 - - 9 5 - - N 1019,7 40 0,0
02.06.2020 11:00:00 19,0 9,7 - - 4 2 - - NO 1019,8 30 0,0
02.06.2020 10:00:00 19,1 10,7 - - 5 3 - - WZW 1020,3 45 -
02.06.2020 09:00:00 17,1 9,5 - - 5 3 - - WNW 1020,7 40 -
02.06.2020 08:00:00 15,4 10,2 - - 4 2 - - WNW 1021,1 50 0,0
02.06.2020 07:00:00 10,9 9,0 - - 0 0 - - N 1021,8 30 0,0
02.06.2020 06:00:00 8,6 7,8 - - 9 5 - - NW 1022,1 35 0,0
02.06.2020 05:00:00 6,9 6,2 - - 0 0 - - N 1022,6 35 0,0
02.06.2020 04:00:00 6,7 6,0 - - 5 3 - - WZW 1023,1 50 0,0
02.06.2020 03:00:00 5,9 4,6 - - 0 0 - - N 1023,6 40 0,0
02.06.2020 02:00:00 6,2 4,5 - - 0 0 - - N 1023,9 50 0,0
02.06.2020 01:00:00 7,0 4,7 - - 2 1 - - OZO 1024,4 45 0,0
02.06.2020 00:00:00 8,8 5,2 - - 4 2 - - O 1024,7 45 0,0
01.06.2020 23:00:00 10,8 5,5 - - 5 3 - - ONO 1024,8 50 0,0
01.06.2020 22:00:00 13,6 6,1 - - 9 5 - - ZZO 1024,7 50 0,0
01.06.2020 21:00:00 17,4 6,6 - - 5 3 - - OZO 1024,3 50 0,0
01.06.2020 20:00:00 18,0 6,6 - - 13 7 - - Z 1024,3 40 0,0
01.06.2020 19:00:00 19,7 7,2 - - 13 7 - - Z 1024,3 50 0,0
01.06.2020 18:00:00 20,4 7,6 - - 24 13 - - Z 1024,4 50 0,0
01.06.2020 17:00:00 21,5 7,8 - - 18 10 - - ZZO 1024,4 40 0,0
01.06.2020 16:00:00 21,6 8,8 - - 28 15 - - ZO 1024,6 30 0,0
01.06.2020 15:00:00 22,6 9,2 - - 15 8 - - Z 1024,8 30 0,0
01.06.2020 14:00:00 22,7 9,0 - - 21 11 - - Z 1024,9 35 0,0
01.06.2020 13:00:00 23,7 8,7 - - 11 6 - - ZZW 1024,9 30 0,0
01.06.2020 12:00:00 22,6 7,8 - - 8 4 - - ZZW 1025,4 45 0,0
01.06.2020 11:00:00 21,3 8,9 - - 5 3 - - O 1025,7 35 0,0
01.06.2020 10:00:00 19,0 8,3 12,2 11,0 8 4 - - O 1026,3 24 0,0
01.06.2020 09:00:00 16,7 7,2 - - 5 3 - - O 1026,7 50 0,0
01.06.2020 08:00:00 13,3 6,6 - - 8 4 - - NW 1027,1 35 0,0
01.06.2020 07:00:00 10,5 6,1 - - 9 5 - - WNW 1027,5 50 0,0
01.06.2020 06:00:00 7,1 5,8 - - 9 5 - - NW 1027,5 50 0,0
01.06.2020 05:00:00 2,4 2,0 - - 2 1 - - Z 1027,8 30 0,0
01.06.2020 04:00:00 1,9 1,6 - - 4 2 - - W 1027,9 21 0,0
01.06.2020 03:00:00 1,6 0,9 - - 0 0 - - N 1028,0 25 0,0
01.06.2020 02:00:00 2,4 1,4 - - 2 1 - - NO 1028,0 45 0,0
01.06.2020 01:00:00 3,4 2,2 - - 2 1 - - N 1028,0 50 0,0
01.06.2020 00:00:00 4,5 2,7 - - 2 1 - - NNO 1028,0 50 0,0
31.05.2020 23:00:00 7,1 3,9 - - 2 1 - - ZO 1027,9 50 0,0
31.05.2020 22:00:00 11,0 5,7 - - 5 3 - - O 1027,1 45 0,0
31.05.2020 21:00:00 15,0 6,9 - - 13 7 - - ZO 1026,7 50 0,0
31.05.2020 20:00:00 17,2 6,7 - - 13 7 - - ZZO 1026,2 40 0,0
31.05.2020 19:00:00 19,1 5,4 - - 13 7 - - Z 1025,7 50 0,0
31.05.2020 18:00:00 20,3 6,8 - - 15 8 - - ZO 1025,5 30 0,0
31.05.2020 17:00:00 20,8 7,2 - - 16 9 - - OZO 1025,4 45 0,0
31.05.2020 16:00:00 20,8 5,4 - - 21 11 - - O 1026,0 30 0,0
31.05.2020 15:00:00 20,7 5,1 - - 22 12 - - O 1026,5 30 0,0
31.05.2020 14:00:00 20,4 4,8 - - 18 10 - - ZO 1026,8 35 0,0
31.05.2020 13:00:00 20,3 4,9 - - 21 11 - - ZO 1027,0 35 0,0
31.05.2020 12:00:00 19,7 6,5 - - 13 7 - - ZO 1027,1 35 0,0
31.05.2020 11:00:00 18,2 3,1 - - 15 8 - - ZZO 1027,7 40 0,0
31.05.2020 10:00:00 16,8 3,9 12,0 10,9 15 8 - - ZZO 1027,9 50 0,0
31.05.2020 09:00:00 13,9 8,8 - - 11 6 - - O 1028,1 40 0,0
31.05.2020 08:00:00 10,4 8,1 - - 5 3 - - OZO 1028,5 29 0,0
31.05.2020 07:00:00 5,5 5,4 - - 2 1 - - NW 1028,8 28 0,0
31.05.2020 06:00:00 1,8 1,7 - - 4 2 - - O 1029,0 7 0,0
31.05.2020 05:00:00 0,3 0,0 - - 4 2 - - W 1028,6 10 0,0
31.05.2020 04:00:00 0,5 0,2 - - 4 2 - - W 1028,8 15 0,0
31.05.2020 03:00:00 0,8 0,1 - - 2 1 - - NNO 1028,8 12 0,0
31.05.2020 02:00:00 2,0 1,3 - - 2 1 - - W 1028,8 29 0,0
31.05.2020 01:00:00 3,1 1,7 - - 4 2 - - WNW 1028,7 30 0,0
31.05.2020 00:00:00 5,2 3,4 - - 5 3 - - OZO 1028,5 45 0,0
30.05.2020 23:00:00 6,8 2,4 - - 5 3 - - O 1028,1 45 0,0
30.05.2020 22:00:00 10,1 4,1 - - 13 7 - - ZO 1027,8 45 0,0
30.05.2020 21:00:00 12,0 4,3 - - 11 6 - - Z 1027,2 40 0,0
30.05.2020 20:00:00 14,7 1,5 - - 18 10 - - ZO 1026,6 35 0,0

tt = temperatuur
td = dauwpunt
tt -20cm = temperatuur -20cm
tt -100cm = temperatuur -100cm
ff = windsnelheid
fx = windstoten
dd = windrichting
ppp = luchtdruk
vv = zicht
rr = neerslag

Weerstations in de omgeving